Wind_Speed
8 9 9 9 9 9 9 9 10 10 11 11 11 11 10 9 10 12 11 6 3 4 3 1 1 2 3 2 5 2 3 3 5 3 2 6 4 6 6 8 9 14 14 12 10
8 8 8 9 9 9 9 10 11 11 11 11 12 12 11 12 12 15 11 10 7 6 5 3 1 1 2 3 4 4 3 6 4 3 4 3 7 8 6 9 11 18 22 24 22
11 10 10 9 9 9 9 10 10 11 12 12 12 13 13 12 14 5 4 13 11 10 8 5 4 5 4 6 7 5 6 5 6 8 6 4 4 8 9 7 21 25 31 30 29
14 14 13 12 12 11 11 11 11 11 12 13 12 12 13 12 5 2 6 6 15 14 10 7 5 4 4 4 12 5 13 19 16 16 8 4 7 7 18 31 13 12 20 29 33
17 17 17 16 15 15 14 13 13 13 13 13 13 13 13 8 16 17 15 11 12 17 14 10 8 7 4 5 6 6 6 14 18 16 17 15 17 12 27 30 27 30 30 29 28
20 20 19 18 18 18 17 16 16 15 15 15 15 15 13 9 14 11 11 12 14 18 17 15 8 7 10 7 4 5 10 14 21 29 19 10 8 8 32 27 24 32 36 34 36
19 20 22 22 22 21 20 19 19 19 18 17 16 15 17 25 22 20 18 16 15 18 20 16 15 12 3 5 7 6 8 9 22 24 7 11 10 14 41 30 25 25 29 33 40
18 18 19 20 22 24 25 24 23 23 22 20 18 14 14 18 19 21 22 20 17 19 20 18 15 14 11 6 5 3 2 5 7 8 6 12 17 12 13 21 29 35 36 32 34
18 19 19 20 21 23 24 23 24 25 24 22 16 11 10 15 18 18 19 18 15 17 18 17 12 9 4 4 5 3 6 8 12 10 6 5 12 11 20 23 32 34 32 36 40
19 19 19 20 21 21 22 22 22 22 21 15 12 5 18 16 13 12 13 15 13 11 9 10 10 3 1 5 9 7 6 7 9 4 3 6 19 17 27 18 21 26 29 37 42
19 20 19 19 20 21 21 17 8 5 6 9 6 9 7 15 12 13 14 17 13 9 7 10 5 10 24 14 8 5 6 9 18 10 10 17 18 21 27 23 24 37 43 48 52
17 19 19 17 16 15 14 8 6 7 11 19 24 28 28 26 12 19 16 14 11 9 6 3 13 20 5 10 10 10 14 15 15 12 10 14 21 16 9 16 28 30 40 51 40
17 18 19 17 14 14 13 8 9 10 6 11 30 26 35 34 25 26 25 14 7 6 10 20 11 18 12 9 8 19 14 19 19 10 6 9 11 12 11 16 30 39 47 50 42
19 17 18 16 7 16 10 13 11 6 3 6 5 5 9 9 5 12 19 14 6 12 8 11 13 11 6 7 12 22 10 14 8 4 13 4 16 9 7 12 10 26 44 36 40
20 17 17 15 13 13 13 12 7 3 7 5 3 3 6 8 1 0 18 9 5 5 6 10 3 8 14 26 9 20 4 5 2 4 5 5 6 3 8 8 12 16 37 44 37
23 19 19 18 15 12 11 11 2 5 8 5 3 2 2 2 2 2 1 3 2 2 6 11 1 4 7 2 6 2 1 1 2 2 12 8 9 5 7 9 6 11 32 37 33
23 20 21 19 16 14 9 4 3 5 5 4 4 3 2 4 3 5 4 3 5 1 5 3 10 2 5 3 2 3 5 4 4 1 12 11 10 21 6 8 11 14 29 31 31
23 22 17 15 23 20 8 4 6 6 8 3 6 1 6 7 7 7 4 4 7 2 2 4 15 12 9 16 12 10 10 7 7 9 18 3 9 8 10 14 27 35 38 33 25
19 21 24 23 17 20 10 2 8 6 4 5 9 11 4 5 7 6 7 6 8 18 11 6 14 1 5 2 9 5 6 11 2 3 2 10 13 10 8 11 11 20 17 27 24
15 17 23 19 15 23 4 13 8 8 2 2 8 6 12 8 5 4 3 3 6 14 19 5 12 8 2 1 3 6 1 1 1 3 7 15 6 14 14 20 16 11 10 17 21
15 9 9 6 18 12 8 9 6 16 13 6 14 18 16 16 9 6 7 15 3 4 1 7 6 17 4 6 9 1 4 5 2 4 12 14 15 6 2 6 10 8 11 14 14
10 4 12 20 7 6 11 5 10 13 15 10 4 8 12 9 12 11 13 15 19 4 13 2 5 4 8 8 5 5 6 6 9 10 3 6 16 10 5 4 10 6 10 12 7
8 11 11 25 7 9 4 7 12 14 14 5 8 8 11 13 9 11 13 17 26 12 7 3 2 4 12 9 3 6 8 7 6 2 9 12 15 26 22 19 14 5 18 14 33
4 3 9 20 19 11 17 19 18 22 19 23 17 17 14 20 18 13 17 14 25 20 23 17 11 9 16 18 7 5 5 8 10 8 20 19 29 26 32 31 27 29 40 44 42
8 5 7 5 13 14 15 14 20 22 18 22 10 21 24 23 27 30 27 28 19 19 10 13 13 19 27 29 28 25 25 28 26 25 20 29 28 25 30 31 24 35 40 33 31
4 3 7 8 12 8 14 18 21 21 13 22 22 24 21 25 28 28 24 21 22 6 23 15 23 22 24 28 31 30 34 35 35 34 28 32 31 33 33 46 36 48 51 34 34
7 19 9 9 3 4 11 14 11 5 10 8 9 8 7 13 20 26 29 28 21 12 7 10 7 10 26 24 25 24 31 37 30 26 24 29 36 36 34 31 33 43 52 38 39
Wind_Direction
332 337 341 346 351 355 359 0 360 0 2 359 353 344 332 318 292 283 280 261 263 270 272 219 40 143 176 236 235 273 46 261 262 300 276 173 161 195 229 234 210 207 239 240 235
314 319 325 329 334 338 342 344 345 346 349 351 350 346 334 322 305 282 264 259 256 252 252 229 84 138 245 245 201 165 156 236 221 294 283 221 202 200 207 236 239 238 241 248 249
308 311 314 316 319 322 324 328 331 333 335 339 339 339 335 325 311 283 304 239 236 240 244 242 210 221 246 230 206 203 213 222 286 300 303 282 250 243 204 237 234 239 245 246 248
302 303 305 307 308 308 311 314 317 320 324 325 325 326 325 320 296 245 325 293 227 233 231 226 195 186 235 231 222 229 246 256 282 281 265 262 271 257 238 249 257 264 252 253 245
296 299 301 302 303 304 305 305 307 310 313 314 314 315 310 282 277 291 286 281 236 230 230 223 206 223 239 258 322 233 264 275 272 291 260 252 254 257 267 261 261 256 256 258 255
295 297 297 299 300 300 301 302 303 303 304 306 307 308 291 246 286 285 281 273 249 234 231 224 215 227 276 255 240 273 275 278 282 276 264 218 258 232 271 273 265 253 248 252 253
296 296 298 298 297 295 293 294 297 298 298 298 298 296 277 272 278 275 274 269 252 240 236 231 233 237 267 296 271 285 317 309 272 260 225 202 284 224 266 259 258 254 255 249 251
303 305 305 305 302 299 297 298 295 291 291 293 290 280 262 273 265 262 261 257 247 237 238 239 237 247 244 260 306 259 210 286 278 130 204 151 262 247 255 250 251 249 250 246 251
308 308 307 307 307 305 303 303 296 291 290 287 280 244 260 256 252 252 251 250 244 237 235 240 227 226 223 123 338 264 240 218 292 200 143 168 256 274 270 242 248 257 254 251 251
321 317 312 312 312 307 304 306 305 295 282 276 237 238 237 238 240 243 241 237 226 218 217 193 192 181 235 129 226 216 225 245 240 200 164 200 247 261 264 256 252 262 268 268 262
330 330 327 329 328 322 313 318 308 309 257 222 201 224 292 235 246 238 224 212 207 190 188 195 154 203 231 200 225 243 253 237 268 267 206 239 238 256 258 264 258 264 268 268 267
325 328 330 341 339 332 328 339 320 284 302 259 258 257 257 267 251 245 222 190 181 209 160 255 218 220 205 204 222 245 256 263 273 264 196 248 254 251 242 248 252 250 260 266 265
316 321 324 340 345 360 355 358 315 298 261 271 257 251 243 241 239 247 220 203 199 194 203 225 219 218 224 232 257 251 249 258 254 289 237 282 267 253 247 254 255 258 261 264 263
305 310 315 337 338 354 7 342 333 329 286 268 235 235 210 192 274 230 207 215 217 227 203 248 231 216 193 212 194 259 216 257 266 263 272 133 290 220 228 242 238 249 260 265 268
291 297 302 316 323 346 347 345 322 344 302 263 215 225 176 181 182 183 200 208 212 201 140 234 215 207 227 232 194 260 175 233 254 247 317 176 283 201 192 243 248 248 257 268 271
283 279 282 296 303 317 344 351 18 47 253 283 159 179 122 268 343 31 101 191 341 312 253 247 184 227 212 166 190 124 207 213 37 80 264 186 207 172 186 216 239 249 258 265 265
277 271 274 276 280 287 312 21 342 200 301 225 238 164 142 210 247 178 160 186 188 268 243 293 224 149 157 180 310 178 88 297 320 15 255 185 222 254 265 235 214 234 247 241 251
267 256 260 265 268 271 281 68 200 208 233 352 34 89 202 169 234 191 173 242 242 255 324 259 283 158 187 202 191 192 183 176 209 256 276 75 251 269 232 234 242 239 242 247 245
267 260 253 251 251 246 183 189 221 181 244 12 346 321 286 272 229 154 208 215 216 190 206 213 263 312 194 173 152 170 182 222 340 76 4 261 278 284 249 275 268 242 247 243 232
276 273 267 261 239 210 154 233 218 212 58 56 257 200 263 251 348 340 215 226 236 196 219 235 272 196 123 92 318 174 171 95 271 218 248 272 287 277 292 284 289 251 207 219 203
255 259 245 207 202 182 221 223 245 234 242 231 243 245 240 270 232 212 245 306 323 3 310 341 263 266 132 192 190 272 255 228 235 185 242 258 271 137 210 315 293 246 211 198 209
239 243 219 198 179 206 232 215 233 251 240 235 241 264 257 270 272 257 230 217 255 47 309 234 299 300 238 281 193 157 219 230 248 265 240 278 269 301 325 10 317 171 158 160 178
232 233 227 200 219 225 206 254 227 253 247 211 225 222 246 250 253 225 237 249 254 239 202 165 195 277 317 301 248 203 201 205 232 139 244 265 266 276 280 280 219 297 295 265 293
240 231 188 209 233 246 252 251 250 240 250 246 257 262 259 259 257 262 256 243 231 237 218 206 202 198 236 238 241 267 258 258 248 250 257 249 258 264 268 261 262 269 268 268 273
219 253 219 212 231 234 247 262 261 262 246 252 230 235 249 265 264 260 252 258 252 239 197 189 235 216 228 241 257 254 253 258 255 252 248 253 251 251 257 270 274 276 272 270 272
250 278 328 288 281 232 221 241 254 264 256 270 273 281 281 267 264 272 285 254 240 240 222 223 249 237 236 229 230 239 251 252 252 250 253 256 260 255 256 262 271 270 270 280 275
255 268 276 272 307 292 258 264 271 344 270 282 358 332 314 298 317 300 289 281 278 297 297 255 251 224 244 233 238 244 241 246 250 253 248 251 249 254 262 261 261 272 278 282 272
Height
1555 1555 1555 1554 1554 1553 1552 1551 1549 1548 1547 1545 1544 1542 1540 1539 1537 1536 1535 1537 1535 1535 1535 1536 1536 1537 1537 1538 1539 1538 1546 1548 1534 1525 1521 1518 1519 1519 1519 1519 1519 1519 1516 1516 1516
1554 1554 1553 1553 1552 1552 1551 1550 1549 1548 1546 1545 1543 1541 1539 1537 1535 1533 1534 1533 1534 1534 1534 1535 1535 1536 1536 1536 1536 1537 1546 1535 1523 1521 1519 1517 1517 1516 1518 1515 1514 1514 1512 1511 1512
1552 1552 1552 1551 1551 1550 1549 1548 1547 1546 1545 1543 1542 1540 1538 1536 1533 1529 1529 1530 1532 1533 1533 1533 1534 1535 1535 1533 1533 1532 1535 1524 1520 1519 1517 1515 1515 1514 1512 1512 1506 1505 1505 1506 1506
1550 1550 1549 1549 1548 1548 1547 1546 1545 1544 1543 1541 1540 1538 1537 1536 1538 1528 1528 1528 1530 1531 1532 1532 1533 1533 1532 1530 1526 1529 1521 1521 1518 1517 1515 1514 1512 1509 1507 1497 1502 1501 1502 1501 1500
1548 1547 1547 1546 1545 1544 1544 1543 1542 1541 1540 1538 1537 1536 1535 1533 1529 1527 1527 1527 1527 1528 1529 1530 1530 1530 1529 1525 1523 1522 1518 1516 1515 1514 1511 1510 1508 1509 1497 1496 1499 1499 1498 1495 1495
1546 1545 1544 1543 1542 1541 1540 1540 1539 1537 1536 1535 1534 1533 1532 1530 1524 1525 1524 1524 1525 1526 1526 1527 1527 1527 1525 1522 1523 1518 1516 1512 1509 1506 1506 1507 1505 1507 1483 1489 1490 1490 1488 1487 1487
1541 1541 1540 1540 1538 1537 1536 1536 1535 1533 1532 1531 1530 1529 1527 1522 1520 1520 1520 1520 1521 1522 1522 1524 1525 1526 1523 1520 1517 1516 1517 1509 1498 1495 1501 1503 1504 1497 1478 1485 1484 1482 1480 1479 1478
1538 1537 1536 1535 1534 1532 1532 1532 1530 1528 1527 1526 1525 1524 1519 1515 1514 1514 1515 1515 1515 1517 1519 1519 1521 1522 1521 1519 1517 1517 1517 1519 1491 1492 1496 1499 1499 1474 1477 1478 1475 1472 1472 1473 1471
1534 1533 1532 1531 1529 1528 1526 1525 1523 1522 1521 1521 1521 1521 1515 1509 1508 1509 1510 1510 1511 1512 1513 1515 1517 1518 1518 1521 1528 1520 1524 1517 1499 1487 1493 1498 1492 1470 1471 1471 1468 1465 1465 1465 1463
1531 1530 1528 1527 1526 1523 1521 1520 1518 1515 1514 1515 1516 1521 1510 1504 1503 1504 1505 1506 1507 1507 1510 1512 1513 1515 1516 1521 1530 1520 1519 1507 1503 1490 1490 1495 1484 1468 1466 1467 1464 1460 1459 1456 1453
1530 1528 1526 1524 1522 1520 1518 1516 1516 1513 1510 1508 1508 1505 1503 1503 1503 1501 1501 1501 1503 1506 1508 1506 1512 1514 1495 1502 1499 1501 1503 1505 1487 1482 1488 1480 1476 1465 1460 1461 1459 1455 1451 1444 1438
1528 1526 1524 1522 1519 1517 1516 1515 1515 1516 1508 1503 1501 1499 1500 1501 1499 1498 1500 1502 1502 1501 1501 1505 1503 1490 1492 1496 1499 1499 1499 1496 1479 1475 1481 1475 1465 1459 1457 1449 1447 1446 1441 1431 1431
1525 1524 1522 1521 1518 1517 1515 1516 1516 1513 1511 1495 1489 1487 1488 1490 1485 1487 1491 1493 1494 1498 1496 1488 1485 1487 1491 1493 1497 1488 1493 1484 1482 1475 1471 1470 1461 1456 1445 1440 1437 1433 1426 1421 1421
1523 1522 1519 1520 1521 1517 1516 1517 1515 1513 1514 1494 1483 1480 1481 1482 1483 1481 1485 1489 1490 1489 1493 1488 1479 1483 1488 1489 1487 1476 1478 1477 1480 1484 1481 1469 1449 1443 1440 1437 1430 1423 1414 1411 1411
1520 1519 1517 1517 1519 1519 1518 1514 1515 1513 1533 1487 1483 1480 1480 1483 1482 1481 1483 1483 1482 1482 1486 1472 1472 1478 1482 1472 1478 1466 1469 1473 1475 1482 1481 1470 1480 1429 1430 1432 1423 1414 1406 1402 1401
1515 1515 1516 1514 1516 1518 1515 1515 1515 1522 1526 1485 1479 1480 1482 1483 1483 1483 1486 1486 1486 1483 1481 1475 1471 1470 1469 1470 1470 1471 1473 1472 1477 1486 1478 1475 1469 1414 1431 1420 1413 1405 1400 1396 1395
1510 1510 1510 1510 1515 1516 1514 1517 1524 1520 1487 1479 1477 1480 1479 1484 1484 1483 1487 1490 1489 1491 1487 1472 1465 1462 1463 1471 1475 1474 1480 1500 1497 1507 1464 1448 1461 1410 1412 1407 1401 1396 1391 1387 1387
1506 1504 1501 1506 1508 1514 1514 1521 1526 1494 1488 1473 1474 1479 1481 1476 1476 1479 1480 1486 1483 1485 1483 1480 1463 1461 1453 1453 1455 1468 1471 1489 1493 1471 1442 1463 1442 1411 1398 1392 1387 1383 1380 1381 1382
1499 1499 1494 1497 1500 1506 1512 1517 1493 1488 1478 1478 1476 1480 1480 1474 1472 1475 1478 1475 1469 1470 1475 1474 1456 1445 1445 1446 1444 1457 1469 1450 1470 1494 1478 1420 1410 1393 1391 1389 1383 1376 1375 1376 1378
1494 1493 1489 1493 1492 1496 1503 1489 1483 1479 1477 1478 1482 1487 1480 1474 1479 1481 1475 1463 1458 1455 1452 1449 1456 1440 1444 1448 1446 1443 1443 1462 1468 1472 1473 1419 1420 1400 1398 1386 1377 1375 1371 1373 1376
1489 1487 1483 1484 1487 1490 1486 1479 1473 1470 1477 1479 1476 1474 1471 1473 1470 1469 1479 1465 1458 1454 1460 1460 1448 1434 1445 1448 1445 1451 1447 1443 1444 1448 1431 1433 1406 1384 1391 1384 1380 1374 1372 1374 1377
1483 1481 1478 1478 1482 1477 1472 1473 1470 1467 1471 1468 1469 1472 1464 1465 1462 1460 1456 1457 1451 1452 1459 1461 1462 1457 1441 1434 1429 1430 1434 1436 1437 1436 1440 1425 1411 1391 1392 1388 1388 1374 1374 1373 1376
1477 1473 1472 1473 1468 1467 1462 1466 1463 1461 1464 1463 1462 1463 1464 1461 1459 1450 1449 1442 1443 1447 1454 1455 1463 1462 1453 1436 1431 1424 1423 1424 1424 1432 1434 1439 1417 1382 1388 1388 1384 1377 1380 1377 1374
1471 1467 1465 1463 1460 1459 1457 1452 1455 1451 1450 1454 1457 1459 1459 1460 1450 1440 1436 1432 1430 1434 1434 1445 1448 1445 1437 1426 1418 1426 1421 1419 1414 1422 1409 1411 1394 1388 1372 1367 1363 1369 1368 1365 1365
1467 1459 1456 1454 1450 1455 1455 1450 1447 1446 1446 1446 1443 1447 1448 1449 1443 1433 1430 1426 1425 1423 1425 1431 1431 1432 1423 1420 1418 1416 1414 1405 1411 1402 1404 1390 1391 1381 1366 1352 1357 1357 1353 1355 1356
1461 1459 1454 1450 1446 1449 1446 1442 1444 1443 1450 1442 1444 1441 1440 1438 1435 1429 1427 1422 1416 1407 1410 1416 1408 1410 1405 1405 1405 1404 1397 1393 1390 1383 1380 1380 1373 1356 1352 1349 1348 1342 1338 1350 1352
1459 1457 1458 1447 1446 1447 1440 1438 1438 1440 1441 1443 1445 1446 1438 1436 1439 1436 1432 1428 1423 1417 1410 1412 1405 1394 1380 1385 1384 1383 1384 1370 1369 1371 1366 1367 1349 1347 1344 1345 1339 1335 1335 1338 1335